This is the latest recevied weather packets stored in our database for station/object SM6LNJ-13. If no packets are shown the sender has not sent any weather packets the latest 10 day(s).
| Time | Temp. | Humidity | Pressure | Rain* | Wind** | Luminosity | Snow |
|---|---|---|---|---|---|---|---|
| 1777743586 | 15° C | 53% | 1431.4 hPa | 0 mm | - | - | - |
| 1777742993 | 15.56° C | 52% | 1432.1 hPa | 0 mm | - | - | - |
| 1777742866 | 15.56° C | 51% | 1432 hPa | 0 mm | - | - | - |
| 1777741073 | 17.22° C | 46% | 1436.6 hPa | 0 mm | - | - | - |
| 1777740713 | 17.78° C | 45% | 1437.5 hPa | 0 mm | - | - | - |
| 1777740592 | 17.78° C | 45% | 1438.1 hPa | 0 mm | - | - | - |
| 1777740113 | 19.44° C | 45% | 1441.3 hPa | 0 mm | - | - | - |
| 1777739993 | 18.89° C | 46% | 1440.3 hPa | 0 mm | - | - | - |
| 1777739753 | 18.33° C | 47% | 1439.1 hPa | 0 mm | - | - | - |
| 1777739152 | 18.89° C | 49% | 1440.4 hPa | 0 mm | - | - | - |
| 1777738792 | 20° C | 48% | 1442.8 hPa | 0 mm | - | - | - |
| 1777738672 | 20.56° C | 48% | 1443.8 hPa | 0 mm | - | - | - |
| 1777738314 | 20° C | 50% | 1442.8 hPa | 0 mm | - | - | - |
| 1777738193 | 19.44° C | 49% | 1442 hPa | 0 mm | - | - | - |
| 1777738073 | 19.44° C | 49% | 1441.7 hPa | 0 mm | - | - | - |
| 1777737953 | 19.44° C | 50% | 1441.7 hPa | 0 mm | - | - | - |
| 1777737713 | 20.56° C | 47% | 1444.1 hPa | 0 mm | - | - | - |
| 1777737473 | 20.56° C | 48% | 1444.6 hPa | 0 mm | - | - | - |
| 1777737113 | 20.56° C | 49% | 1444.8 hPa | 0 mm | - | - | - |
| 1777736633 | 20° C | 50% | 1442.7 hPa | 0 mm | - | - | - |
| 1777736393 | 20.56° C | 50% | 1443.7 hPa | 0 mm | - | - | - |
| 1777736273 | 20° C | 50% | 1443.2 hPa | 0 mm | - | - | - |
| 1777735912 | 20.56° C | 50% | 1443.8 hPa | 0 mm | - | - | - |
| 1777735792 | 20.56° C | 50% | 1444.1 hPa | 0 mm | - | - | - |
| 1777735672 | 20.56° C | 50% | 1443.7 hPa | 0 mm | - | - | - |
* Rain latest hour (hover to see other rain measurements)
** Current wind speed in m/s (hover to see current wind gust speed)